Погода Зея

Хотите узнать прогноз погоды Зея? Тогда Вам сюда: Погода Зея

Поиск расширенной информации на нашем сайте:

Полезная информация:

Новости сайта



02.01.2020
Опубликован Долгосрочный прогноз погоды по городам России и ближнего зарубежья на январь 2020 года.
Карты: Прогноз на январь и февраль 2020 года, Сравнение прогнозируемой аномалии приземной температуры воздуха на январь 2020 года по разным моделям.




Погода Зея - сегодня

Время (UTC), дата Ветер
(°,м/с) 
Видим.   Явления Облачность Т
(°С)
Тd
(°С)
f(%) Тe
(°С)
Pmin
(гПа)
dP
(гПа)
Po
(мм)
O2
(г/м3)
Тmin Tmax R s Состояние
почвы
00 24.11.20 тихо ()   50000 м    ясно 
-18.6 -21.2 80 -19  1017  1.3  740  321  -19.1      равномерный
сухой снег
100% 
03 24.11.20 340 (С) 20000 м    ясно 
-6.7 -10.7 73 -6  1016.4  0.9  740  307           
06 24.11.20 340 (С) 2{10}  20000 м    ясно 
-4.4 -17.9 34 -6  1017.4  1.2  741  305           
09 24.11.20 тихо ()   20000 м    ясно 
-9.2 -18.3 48 -9  1020.1  2.1  743  311           
12 24.11.20 310 (СЗ) 20000 м    ясно 
-12.4 -19.5 55 -12  1021.6  1.1  744  315    -3.9       
15 24.11.20 360 (С) 20000 м    ясно 
-12.7 -18.9 60 -13  1023.1  1.7  745  316           
18 24.11.20 290 (З) 20000 м    ясно 
-15.1 -21.1 60 -15  1024.7  746  320           
21 24.11.20 тихо ()   20000 м    ясно 
-20 -23.2 76 -20  1025.3  746  326           
00 25.11.20 тихо ()   50000 м    ясно 
-18.6 -22 75 -19  1025.8  0.5  746  324  -20.5      равномерный
сухой снег
100% 
03 25.11.20 350 (С) 20000 м    ясно 
-7.9 -20 37 -8  1023.9  -0.5  746  311           
06 25.11.20 350 (С) 20000 м    1/1 300 м 
[St]
-8.1 -20.1 37 -10  1023.4  -0.5  745  311           
09 25.11.20 310 (СЗ) 20000 м    ясно 
-10.8 -19.6 48 -11  1023.8  0.1  745  314           
12 25.11.20 320 (СЗ) 50000 м    3/0 верхняя 
[Ci sp]
-12 -19.4 54 -12  1023.6  -0.4  745  315    -7.5       
15 25.11.20 тихо ()   20000 м    8/0 верхняя 
[Ci sp]
-12.6 -20.1 53 -13  1023  -0.7  744  316           
18 25.11.20 350 (С) 20000 м    ясно 
-12.1 -20.7 49 -12  1022.8  -0.1  744  315           
21 25.11.20 310 (СЗ) 20000 м    ясно 
-12.6 -19.9 54 -13  1022.7  -0.2  744  316           
00 26.11.20 330 (СЗ) 50000 м    ясно 
-11.8 -20.1 50 -12  1023.4  0.8  745  315  -13.7      равномерный
сухой снег
100% 
03 26.11.20 360 (С) 20000 м    ясно 
-8 -19.3 40 -11  1023.8  0.9  746  311           
06 26.11.20 030 (СВ) 20000 м    ясно 
-7.1 -19.2 37 -7  1024.4  0.6  746  310           
09 26.11.20 350 (С) 20000 м    ясно 
-8.7 -19.3 42 -10  1025.5  0.9  747  312           
12 26.11.20 300 (СЗ) 20000 м    ясно 
-11.6 -19.7 51 -11  1026.6  0.7  747  316    -7       
15 26.11.20 250 (З) 2{10}  20000 м    ясно 
-9.6 -19 46 -11  1025.1  -0.9  746  313           
18 26.11.20 360 (С) 4{11}  20000 м    ясно 
-8.8 -19.2 43 -13  1025.9  0.6  747  312           
21 26.11.20 010 (С) 3-12{12}  20000 м    ясно 
-9.1 -19 44 -12  1025.6  -0.3  747  313           
00 27.11.20 010 (С) 3{12}  20000 м    3/0 верхняя 
[Ci sp]
-10 -18.9 48 -13  1025.8  0.1  747  314  -14      равномерный
сухой снег
100% 
Время (UTC), дата Ветер
(°,м/с) 
Видим.   Явления Облачность Т
(°С)
Тd
(°С)
f(%) Тe
(°С)
Pmin
(гПа)
dP
(гПа)
Po
(мм)
O2
(г/м3)
Тmin Tmax R s Состояние
почвы

Для получения пояснительной информации подведите курсор к названию столбца.

ПОГОДА Зея - архив

Всё, что Вы хотите узнать о погоде Зея - удобно и подробно!

Выберите нужную дату (начиная с 1 января 2019* года) и нажмите кнопку "Найти".
Будут отображены архивные сводки погоды по пункту Зея, начиная с указанной даты.


Отображать данные в формате CSV (для использования в таблицах Excel)


Внимание! Наш архив погоды предназначен исключительно для личного некоммерческого использования в познавательных целях. Если Вам необходимы официальные справки о состоянии погоды (для производственных, юридических, коммерческих и т.п. целей), обращайтесь в органы Росгидромета.

*Примечание: данная дата относится к архиву по метеостанциям СССР (Россия, СНГ, Балтия).
Архив по метеостанциям Зарубежной Европы и Азии (кроме Китая) хранится 10 дней, по другим регионам земного шара (Китай, Африка, Америка, Австралия, Океания) - 1 день.

Зея - район местоположения метеостанции


Название, широта, долгота, высота метеостанции:
Зея 53.7°ш. 127.3°д. 229 м над ур. моря [Российская Федерация]

Дополнительная информация

В oтличие oт бoльшинства пoгoдных сайтoв мы публикуем пoдрoбную метеoинфoрмацию в детальнoм прoфессиoнальнoм фoрмате.

Характеристики температуры и влажнoсти вoздуха измеряются на высoте 2 м в тени вдали oт зданий и деревьев.
Скoрoсть ветра измеряется на высoте 10 м (на урoвне рoста челoвека скoрoсть ветра ниже в 1.5-2 раза). Если метеoстанция нахoдится в гoрoде или в лесу, тo скoрoсть ветра занижена на 2-4 м/с пo сравнению с oткрытым местoм. Скoрoсть ветра над акватoриями крупных рек и oзёр, а также на вершинах хoлмoв на 2-5 м/с выше, чем в oбычных услoвиях.
Атмoсфернoе давление в разных тoчках местнoсти мoжет значительнo oтличаться oт давления на метеoстанции, в зависимoсти oт услoвий рельефа (при пoдъёме на 10 м давление пoнижается примернo на 1 мм рт.ст.).